Flag for U.S.A. Weather past 2 weeks in Syracuse, New York, U.S.A.

Now
39 °F

Passing clouds.


Feels Like: 36 °F
Forecast: 30 / 65 °F
Wind: 5 mph from Northeast

Location: Syracuse Hancock International Airport


UV Index: 5 (Moderate)

Visibility: 10 mi


Pressure: 30.42 "Hg

Humidity: 65%

Dew point: 28 °F

Location of SyracuseLocation

Historic Weather in Syracuse

°F

Syracuse temperature yesterday

Maximum temperature yesterday: 61 °F (at 4:54 PM)
Minimum temperature yesterday: 36 °F (at 5:54 AM)
Average temperature yesterday: 48 °F

Past Weeks' High & Low Weather Summary

 TemperatureHumidityPressure
High82 °F (Apr 13, 4:54 PM)100% (Apr 8, 12:54 AM)30.67 "Hg (Apr 8, 12:54 AM)
Low22 °F (Apr 16, 6:54 AM)23% (Apr 10, 2:54 PM)29.27 "Hg (Apr 8, 9:54 AM)
Average46 °F64%30.01 "Hg
* Reported Apr 4 10:54 PM — Apr 19 10:54 PM, Syracuse, Weather by CustomWeather, © 2014

Note: Actual official high and low records may vary slightly from our data, if they occured in-between our weather recording intervals... More about our weather records

Advertising

Historic Weather Conditions — Data for Previous 24 hours

 ConditionsComfort  
Time TempWeatherWind HumidityBarometerVisibility
10:54 PM
Apr 19
39 °FPassing clouds.5 mph65%30.42 "Hg10 mi
9:54 PM41 °FPassing clouds.6 mph58%30.42 "Hg10 mi
8:54 PM44 °FPassing clouds.5 mph53%30.41 "Hg10 mi
7:54 PM46 °FScattered clouds.8 mph51%30.40 "Hg10 mi
6:54 PM50 °FScattered clouds.9 mph44%30.40 "Hg10 mi
5:54 PM51 °FScattered clouds.8 mph39%30.39 "Hg10 mi
4:54 PM52 °FScattered clouds.12 mph37%30.38 "Hg10 mi
3:54 PM52 °FScattered clouds.14 mph38%30.39 "Hg10 mi
2:54 PM52 °FScattered clouds.13 mph41%30.40 "Hg10 mi
1:54 PM52 °FScattered clouds.14 mph45%30.40 "Hg10 mi
12:54 PM46 °FScattered clouds.8 mph63%30.41 "Hg10 mi
11:54 AM43 °FOvercast.8 mph71%30.42 "Hg10 mi
10:54 AM42 °FOvercast.12 mph76%30.40 "Hg10 mi
9:54 AM42 °FOvercast.12 mph76%30.38 "Hg10 mi
9:00 AM39 °FMostly cloudy.8 mph81%30.37 "Hg10 mi
7:54 AM39 °FScattered clouds.9 mph76%30.34 "Hg10 mi
6:54 AM36 °FPassing clouds.8 mph79%30.32 "Hg10 mi
5:54 AM36 °FPassing clouds.7 mph82%30.30 "Hg10 mi
4:54 AM39 °FPassing clouds.9 mph76%30.27 "Hg10 mi
3:54 AM41 °FPassing clouds.9 mph74%30.25 "Hg10 mi
2:54 AM43 °FPartly cloudy.8 mph82%30.25 "Hg10 mi
1:54 AM45 °FOvercast.9 mph80%30.25 "Hg10 mi
12:54 AM45 °FOvercast.9 mph80%30.25 "Hg10 mi
11:54 PM
Apr 18
45 °FMostly cloudy.8 mph82%30.23 "Hg10 mi
Weather by CustomWeather, © 2014

See weather overview